Find Starlink 3673

NORAD ID: 52093 Int'l Des: 2022-029 Owner: SPXS Country: US Constellation: starlink operational
LEOCIRCULAR

实时位置

正在加载3D地球...

关于 Starlink 3673

正在加载描述...

即将过境

Passes for default location (London). Set your location on the main map for personalized predictions.

高度历史

Loading altitude history...

两行轨道根数

1 52093U 22029F 26127.16423304 -.00004461 00000-0 -26230-3 0 9998
2 52093 53.2179 186.6279 0001447 100.8441 259.2714 15.08843956229485
Epoch: May 7, 2026 • Age: 14 hours

当前状态

高度 545.6 km
速度 7.59 km/s
星下点 -19.02°S, 31.36°E
发射日期 Mar 19, 2022
运行时间 4.1 years
类型 internet

技术详情

分类 Payload
质量 297.00 kg
干质量 275.00 kg
总质量 297.00 kg
长度 0.20 m
直径 2.80 m
跨度 9.00 m
形状 Box + pan
制造商 SPXS
平台类型 Starlink
阶段状态 In Orbit
所有者/国家 SPXS/US

Most Searched